Вернуться в каталог

COSMOS 2251 DEB

АктивенLEO
NORAD 33835·DEBRIS·🇷🇺 Russia

Запущен Jun 16, 1993 с Plesetsk Cosmodrome

Loading…

Ближайшие Пролёты (ближайшие 24 часа)

TLE

СвежийSource: Space-Track

Эпоха: Sep 13, 2026, 21:09 UTC

1 33835U 93036CC  26256.88188564  .00002219  00000-0  41658-3 0  9993
2 33835  74.0547 293.7866 0056685 275.8364 259.3561 14.64330772928149

Отслеживайте COSMOS 2251 DEB в реальном времени с AllMySat

Download on the App Store